This is the latest recevied weather packets stored in our database for station/object NB9X. If no packets are shown the sender has not sent any weather packets the latest 10 day(s).
| Time | Temp. | Humidity | Pressure | Rain* | Wind** | Luminosity | Snow |
|---|---|---|---|---|---|---|---|
| 1778186286 | 32.78° C | 100% | 1013.7 hPa | 0 mm | - | - | - |
| 1778185986 | 32.22° C | 100% | 1013.6 hPa | 0 mm | - | - | - |
| 1778185686 | 32.78° C | 100% | 1013.6 hPa | 0 mm | - | - | - |
| 1778185386 | 32.22° C | 100% | 1013.7 hPa | 0 mm | - | - | - |
| 1778185086 | 32.22° C | 100% | 1013.8 hPa | 0 mm | - | - | - |
| 1778184884 | 32.78° C | 100% | 1013.8 hPa | 0 mm | - | - | - |
| 1778184786 | 32.78° C | 100% | 1013.8 hPa | 0 mm | - | - | - |
| 1778184486 | 32.22° C | 100% | 1013.8 hPa | 0 mm | - | - | - |
| 1778184186 | 32.78° C | 100% | 1013.8 hPa | 0 mm | - | - | - |
| 1778183886 | 31.67° C | 100% | 1013.9 hPa | 0 mm | - | - | - |
| 1778183586 | 32.78° C | 100% | 1013.9 hPa | 0 mm | - | - | - |
| 1778183286 | 31.67° C | 100% | 1013.9 hPa | 0 mm | - | - | - |
| 1778182986 | 32.22° C | 100% | 1014.1 hPa | 0 mm | - | - | - |
| 1778182686 | 32.78° C | 100% | 1014.2 hPa | 0 mm | - | - | - |
| 1778182386 | 31.67° C | 100% | 1014.2 hPa | 0 mm | - | - | - |
| 1778182086 | 32.22° C | 100% | 1014.1 hPa | 0 mm | - | - | - |
| 1778181786 | 31.11° C | 100% | 1014.3 hPa | 0 mm | - | - | - |
| 1778181486 | 31.11° C | 100% | 1014.4 hPa | 0 mm | - | - | - |
| 1778181186 | 31.67° C | 100% | 1014.5 hPa | 0 mm | - | - | - |
| 1778180886 | 32.22° C | 100% | 1014.5 hPa | 0 mm | - | - | - |
| 1778180586 | 32.22° C | 100% | 1014.5 hPa | 0 mm | - | - | - |
| 1778180286 | 31.11° C | 100% | 1014.6 hPa | 0 mm | - | - | - |
| 1778179986 | 31.67° C | 100% | 1014.8 hPa | 0 mm | - | - | - |
| 1778179819 | 31.11° C | 100% | 1014.7 hPa | 0 mm | - | - | - |
| 1778179686 | 31.11° C | 100% | 1014.7 hPa | 0 mm | - | - | - |
* Rain latest hour (hover to see other rain measurements)
** Current wind speed in m/s (hover to see current wind gust speed)